This is the latest recevied weather packets stored in our database for station/object AE5PL. If no packets are shown the sender has not sent any weather packets the latest 10 day(s).
| Time | Temp. | Humidity | Pressure | Rain* | Wind** | Luminosity | Snow |
|---|---|---|---|---|---|---|---|
| 1778023950 | 26.67° C | 62% | 1004.1 hPa | - | - | - | - |
| 1778023650 | 26.67° C | 61% | 1004 hPa | - | - | - | - |
| 1778023350 | 27.22° C | 60% | 1003.7 hPa | - | - | - | - |
| 1778023050 | 27.78° C | 57% | 1003.6 hPa | - | - | - | - |
| 1778022750 | 28.33° C | 55% | 1003.4 hPa | - | - | - | - |
| 1778022450 | 28.33° C | 54% | 1003.2 hPa | - | - | - | - |
| 1778022150 | 28.33° C | 54% | 1003 hPa | - | - | - | - |
| 1778021850 | 28.89° C | 52% | 1003.1 hPa | - | - | - | - |
| 1778021550 | 28.89° C | 52% | 1003.2 hPa | - | - | - | - |
| 1778021250 | 28.89° C | 51% | 1003.3 hPa | - | - | - | - |
| 1778020950 | 29.44° C | 51% | 1003.1 hPa | - | - | - | - |
| 1778020650 | 30° C | 50% | 1002.9 hPa | - | - | - | - |
| 1778020350 | 31.11° C | 48% | 1002.8 hPa | - | - | - | - |
| 1778020050 | 32.22° C | 53% | 1002.4 hPa | - | - | - | - |
| 1778019750 | 31.67° C | 55% | 1002.4 hPa | - | - | - | - |
| 1778019450 | 31.67° C | 55% | 1002.5 hPa | - | - | - | - |
| 1778019150 | 31.11° C | 55% | 1002.4 hPa | - | - | - | - |
| 1778018849 | 31.11° C | 54% | 1002.4 hPa | - | - | - | - |
| 1778018549 | 31.11° C | 55% | 1002.7 hPa | - | - | - | - |
| 1778018250 | 31.11° C | 55% | 1002.7 hPa | - | - | - | - |
| 1778017949 | 31.67° C | 53% | 1002.8 hPa | - | - | - | - |
| 1778017650 | 31.67° C | 53% | 1002.8 hPa | - | - | - | - |
| 1778017350 | 32.22° C | 54% | 1002.7 hPa | - | - | - | - |
| 1778017050 | 32.22° C | 54% | 1002.8 hPa | - | - | - | - |
| 1778016749 | 31.67° C | 58% | 1002.9 hPa | - | - | - | - |
* Rain since midnight (hover to see other rain measurements)
** Current wind speed in m/s (hover to see current wind gust speed)